Weather History for Columbia, MO

Change the Weather History Date:

Tuesday, December 4, 2012

  Actual Average Record
Temperature  
Mean Temperature 50 °F 36 °F  
Max Temperature 61 °F 45 °F 70 °F (1933)
Min Temperature 39 °F 27 °F 2 °F (1893)
Degree Days  
Heating Degree Days 15 29  
Month to date heating degree days 25 114  
Since 1 July heating degree days 992 1099  
Cooling Degree Days 0 0  
Month to date cooling degree days 0 0  
Year to date cooling degree days 1896 1249  
Moisture  
Dew Point 37 °F    
Average Humidity 64    
Maximum Humidity 93    
Minimum Humidity 35    
Precipitation  
Precipitation T in 0.09 in 2.01 in (1999)
Month to date precipitation 0.46 0.37  
Year to date precipitation 29.60 40.55  
Snow  
Snow 0.00 in 0.10 in 3.20 in (1908)
Month to date snowfall 0.0 0.4  
Since 1 July snowfall 0.0 1.3  
Snow Depth 0.00 in    
Sea Level Pressure  
Sea Level Pressure 30.19 in    
Wind  
Wind Speed 6 mph (NNW)    
Max Wind Speed 13 mph    
Max Gust Speed 17 mph    
Visibility 10 miles    
Events      
T = Trace of Precipitation, MM = Missing Value Source: NWS Daily Summary

Daily Weather History Graph

Daily Weather History Graph

Search for Another Location

Airport:

Trip Planner

Search our weather history database for the weather conditions in past years. The results will help you decide how hot, cold, wet, or windy it might be!

Date:

Astronomy

Dec. 04, 2012 Rise Set
Actual Time 7:11 AM CST 4:46 PM CST
Civil Twilight 6:42 AM CST 5:16 PM CST
Nautical Twilight 6:08 AM CST 5:49 PM CST
Astronomical Twilight 5:36 AM CST 6:21 PM CST
Moon 10:32 PM CST (12/4) 11:07 AM CST (12/4)
Length of Visible Light 10h 34m
Length of Day
9h 35m
Waning Gibbous, 69% of the Moon is Illuminated
Dec 4
Waning Gibbous
Dec 6
Last Quarter
Dec 13
New
Dec 19
First Quarter
Dec 28
Full

Hourly Weather History & Observations

Time (CST) Temp. Windchill Dew Point Humidity Pressure Visibility Wind Dir Wind Speed Gust Speed Precip Events Conditions
12:54 AM 53.1 °F - 48.9 °F 86% 29.99 in 10.0 mi North 9.2 mph - 0.00 in   Overcast
1:54 AM 52.0 °F - 48.9 °F 89% 30.01 in 10.0 mi North 5.8 mph - N/A   Scattered Clouds
2:54 AM 53.1 °F - 46.9 °F 80% 30.04 in 10.0 mi North 10.4 mph - N/A   Overcast
3:54 AM 51.1 °F - 44.1 °F 77% 30.06 in 10.0 mi North 8.1 mph - N/A   Mostly Cloudy
4:54 AM 50.0 °F - 44.1 °F 80% 30.08 in 10.0 mi NNW 8.1 mph - N/A   Clear
5:54 AM 48.0 °F - 42.1 °F 80% 30.11 in 10.0 mi NNW 6.9 mph - N/A   Clear
6:54 AM 46.9 °F - 41.0 °F 80% 30.14 in 10.0 mi NNW 8.1 mph - N/A   Clear
7:54 AM 46.0 °F 41.9 °F 39.0 °F 76% 30.17 in 10.0 mi NNW 8.1 mph - N/A   Clear
8:54 AM 46.9 °F - 39.0 °F 74% 30.20 in 10.0 mi NNW 6.9 mph - N/A   Clear
9:54 AM 48.9 °F - 39.0 °F 69% 30.22 in 10.0 mi NNW 8.1 mph - N/A   Clear
10:54 AM 52.0 °F - 37.9 °F 59% 30.22 in 10.0 mi North 8.1 mph - N/A   Clear
11:54 AM 55.4 °F - 37.4 °F 51% 30.21 in 10.0 mi North 5.8 mph - N/A   Clear
12:54 PM 59.0 °F - 35.1 °F 41% 30.21 in 10.0 mi NNW 6.9 mph - N/A   Clear
1:54 PM 60.1 °F - 32.0 °F 35% 30.20 in 10.0 mi Variable 4.6 mph - N/A   Clear
2:54 PM 61.0 °F - 32.0 °F 34% 30.21 in 10.0 mi North 6.9 mph - N/A   Clear
3:54 PM 59.0 °F - 34.0 °F 39% 30.24 in 10.0 mi NNE 4.6 mph - N/A   Clear
4:54 PM 55.0 °F - 30.9 °F 40% 30.25 in 10.0 mi WNW 4.6 mph - N/A   Clear
5:54 PM 52.0 °F - 30.9 °F 45% 30.27 in 9.0 mi Calm Calm - N/A   Clear
6:54 PM 50.0 °F - 30.9 °F 48% 30.28 in 10.0 mi Calm Calm - N/A   Clear
7:54 PM 48.9 °F - 30.9 °F 50% 30.29 in 7.0 mi WNW 4.6 mph - N/A   Clear
8:54 PM 48.9 °F - 30.0 °F 48% 30.30 in 7.0 mi West 5.8 mph - N/A   Clear
9:54 PM 46.9 °F - 30.9 °F 54% 30.30 in 8.0 mi WSW 3.5 mph - N/A   Clear
10:54 PM 45.0 °F 41.8 °F 30.9 °F 58% 30.31 in 8.0 mi West 5.8 mph - N/A   Clear
11:54 PM 39.9 °F 36.7 °F 30.9 °F 70% 30.32 in 10.0 mi South 4.6 mph - N/A   Clear